| time (UTC) | temp C | wind direction | speed KPH | gust KPH | rain 1hr cm | rain 24hr cm | rain mn cm | humidity % | barometer mb |
| 20260502130557 | 15 | 0 | 20.9 | 30.6 | 0.00 | 2.77 | 0.00 | 100 | 1017.6 |
| 20260502123555 | 15 | 318 | 11.3 | 19.3 | 0.00 | 2.77 | 0.00 | 100 | 1017.1 |
| 20260502123055 | 15 | 337 | 11.3 | 20.9 | 0.00 | 2.77 | 0.00 | 100 | 1017.0 |
| 20260502122555 | 15 | 348 | 12.9 | 24.1 | 0.00 | 2.77 | 0.00 | 100 | 1016.9 |
| 20260502122055 | 15 | 334 | 16.1 | 29.0 | 0.00 | 2.77 | 0.00 | 100 | 1016.8 |
| 20260502121555 | 15 | 355 | 16.1 | 29.0 | 0.00 | 2.77 | 0.00 | 100 | 1016.7 |
| 20260502121055 | 15 | 334 | 16.1 | 24.1 | 0.00 | 2.77 | 0.00 | 100 | 1016.6 |
| 20260502115553 | 15 | 11 | 16.1 | 25.7 | 0.00 | 2.77 | 0.00 | 100 | 1016.5 |
| 20260502115053 | 15 | 355 | 17.7 | 25.7 | 0.00 | 2.77 | 0.00 | 100 | 1016.4 |
| 20260502114554 | 15 | 30 | 17.7 | 29.0 | 0.00 | 2.77 | 0.00 | 100 | 1016.4 |
| 20260502114053 | 15 | 5 | 16.1 | 29.0 | 0.00 | 2.77 | 0.00 | 100 | 1016.4 |
| 20260502113553 | 15 | 355 | 16.1 | 25.7 | 0.00 | 2.77 | 0.00 | 100 | 1016.3 |
| 20260502113053 | 15 | 351 | 16.1 | 24.1 | 0.00 | 2.77 | 0.00 | 100 | 1016.2 |
| 20260502112052 | 15 | 5 | 14.5 | 22.5 | 0.00 | 2.77 | 0.00 | 100 | 1016.1 |
| 20260502111551 | 15 | 12 | 11.3 | 22.5 | 0.00 | 2.77 | 0.00 | 100 | 1016.2 |
| 20260502110551 | 15 | 320 | 11.3 | 19.3 | 0.00 | 2.77 | 0.00 | 100 | 1016.1 |
| 20260502110051 | 15 | 348 | 14.5 | 22.5 | 0.00 | 2.77 | 0.00 | 100 | 1016.0 |
| 20260502105551 | 15 | 0 | 16.1 | 22.5 | 0.00 | 2.77 | 0.00 | 100 | 1015.8 |
| 20260502105052 | 15 | 38 | 16.1 | 24.1 | 0.00 | 2.77 | 0.00 | 100 | 1015.8 |
| 20260502104052 | 15 | 11 | 17.7 | 25.7 | 0.00 | 2.77 | 0.00 | 100 | 1015.6 |
| 20260502103552 | 15 | 350 | 16.1 | 25.7 | 0.00 | 2.77 | 0.00 | 100 | 1015.4 |
| 20260502103052 | 15 | 11 | 12.9 | 25.7 | 0.00 | 2.77 | 0.00 | 100 | 1015.3 |
| 20260502102551 | 15 | 341 | 14.5 | 25.7 | 0.00 | 2.77 | 0.00 | 100 | 1015.3 |
| 20260502102049 | 15 | 355 | 14.5 | 25.7 | 0.00 | 2.77 | 0.00 | 100 | 1015.3 |
| 20260502101549 | 15 | 5 | 14.5 | 25.7 | 0.00 | 2.77 | 0.00 | 100 | 1015.3 |
| 20260502100549 | 15 | 327 | 14.5 | 24.1 | 0.00 | 2.77 | 0.00 | 100 | 1015.3 |
| 20260502090544 | 15 | 329 | 11.3 | 20.9 | 0.00 | 2.77 | 0.00 | 100 | 1015.2 |
| 20260502071039 | 15 | 0 | 25.7 | 38.6 | 0.00 | 2.77 | 0.00 | 100 | 1013.9 |
| 20260502065540 | 15 | 5 | 27.4 | 43.5 | 0.00 | 2.77 | 0.00 | 100 | 1014.1 |
| 20260502065040 | 15 | 5 | 29.0 | 43.5 | 0.00 | 2.77 | 0.00 | 100 | 1014.1 |
| 20260502064540 | 15 | 13 | 27.4 | 43.5 | 0.00 | 2.77 | 0.00 | 100 | 1014.1 |
| 20260502063540 | 15 | 5 | 25.7 | 37.0 | 0.00 | 2.77 | 0.00 | 100 | 1014.1 |
| 20260502063038 | 15 | 5 | 22.5 | 38.6 | 0.00 | 2.77 | 0.00 | 100 | 1014.2 |
| 20260502062538 | 15 | 350 | 20.9 | 38.6 | 0.00 | 2.77 | 0.00 | 100 | 1014.2 |
| 20260502062037 | 15 | 345 | 20.9 | 35.4 | 0.00 | 2.77 | 0.00 | 100 | 1014.1 |
| 20260502061038 | 15 | 0 | 19.3 | 35.4 | 0.00 | 2.77 | 0.00 | 100 | 1014.0 |
| 20260502060538 | 15 | 336 | 22.5 | 35.4 | 0.00 | 2.77 | 0.00 | 100 | 1013.9 |
| 20260502060038 | 15 | 345 | 24.1 | 35.4 | 0.00 | 2.77 | 0.00 | 100 | 1013.9 |
| 20260502055538 | 15 | 16 | 24.1 | 35.4 | 0.00 | 2.77 | 0.00 | 100 | 1013.8 |
| 20260502055038 | 15 | 355 | 24.1 | 40.2 | 0.00 | 2.77 | 0.00 | 100 | 1013.7 |
| 20260502054538 | 15 | 5 | 27.4 | 40.2 | 0.00 | 2.77 | 0.00 | 100 | 1013.7 |
| 20260502054036 | 15 | 355 | 27.4 | 45.1 | 0.00 | 2.77 | 0.00 | 100 | 1013.7 |
| 20260502053036 | 16 | 0 | 25.7 | 40.2 | 0.00 | 2.77 | 0.00 | 100 | 1013.6 |
| 20260502052536 | 16 | 19 | 27.4 | 41.8 | 0.00 | 2.77 | 0.00 | 100 | 1013.5 |
| 20260502052036 | 16 | 332 | 29.0 | 41.8 | 0.00 | 2.77 | 0.00 | 100 | 1013.3 |
| 20260502050537 | 16 | 17 | 25.7 | 41.8 | 0.00 | 2.77 | 0.00 | 100 | 1013.1 |
| 20260502045536 | 16 | 11 | 27.4 | 46.7 | 0.00 | 2.77 | 2.87 | 100 | 1012.9 |
| 20260502045035 | 16 | 17 | 24.1 | 40.2 | 0.00 | 2.77 | 2.87 | 100 | 1012.8 |
| 20260502044535 | 17 | 5 | 24.1 | 37.0 | 0.00 | 2.77 | 2.87 | 100 | 1013.0 |
| 20260502044034 | 17 | 336 | 27.4 | 41.8 | 0.00 | 2.77 | 2.87 | 100 | 1013.0 |
| 20260502043034 | 17 | 332 | 27.4 | 45.1 | 0.00 | 2.77 | 2.87 | 100 | 1012.8 |
| 20260502042534 | 17 | 36 | 29.0 | 48.3 | 0.00 | 2.77 | 2.87 | 100 | 1012.6 |
| 20260502041534 | 17 | 351 | 30.6 | 46.7 | 0.00 | 2.77 | 2.87 | 100 | 1012.6 |
| 20260502041034 | 17 | 15 | 30.6 | 48.3 | 0.00 | 2.77 | 2.87 | 100 | 1012.4 |
| 20260502040534 | 17 | 13 | 32.2 | 48.3 | 0.00 | 2.77 | 2.87 | 100 | 1012.3 |
| 20260502040032 | 17 | 0 | 30.6 | 46.7 | 0.00 | 2.77 | 2.87 | 100 | 1012.1 |
| 20260502035532 | 17 | 12 | 30.6 | 45.1 | 0.00 | 2.77 | 2.87 | 100 | 1012.2 |
| 20260502035032 | 17 | 0 | 29.0 | 41.8 | 0.00 | 2.77 | 2.87 | 100 | 1012.2 |
| 20260502034532 | 17 | 0 | 27.4 | 40.2 | 0.00 | 2.77 | 2.87 | 100 | 1012.1 |
| 20260502034032 | 17 | 340 | 27.4 | 43.5 | 0.00 | 2.77 | 2.87 | 100 | 1011.9 |
| 20260502032532 | 17 | 355 | 30.6 | 46.7 | 0.00 | 2.77 | 2.87 | 100 | 1011.6 |
| 20260502032032 | 17 | 15 | 27.4 | 43.5 | 0.00 | 2.77 | 2.87 | 100 | 1011.6 |
| 20260502031532 | 17 | 0 | 27.4 | 40.2 | 0.00 | 2.77 | 2.87 | 100 | 1011.6 |
| 20260502031030 | 17 | 5 | 29.0 | 40.2 | 0.00 | 2.77 | 2.87 | 100 | 1011.6 |
| 20260502030030 | 17 | 5 | 27.4 | 40.2 | 0.00 | 2.77 | 2.87 | 100 | 1011.3 |
| 20260502025530 | 17 | 22 | 27.4 | 38.6 | 0.00 | 2.77 | 2.87 | 100 | 1011.3 |
| 20260502025030 | 17 | 27 | 25.7 | 38.6 | 0.00 | 2.77 | 2.87 | 100 | 1011.2 |
| 20260502024530 | 17 | 5 | 24.1 | 38.6 | 0.00 | 2.77 | 2.87 | 100 | 1011.1 |
| 20260502023530 | 17 | 18 | 29.0 | 41.8 | 0.00 | 2.77 | 2.87 | 100 | 1010.7 |
| 20260502023030 | 17 | 339 | 27.4 | 41.8 | 0.00 | 2.77 | 2.87 | 100 | 1010.8 |
| 20260502022529 | 17 | 12 | 29.0 | 41.8 | 0.00 | 2.77 | 2.87 | 100 | 1010.8 |
| 20260502022028 | 17 | 5 | 29.0 | 41.8 | 0.00 | 2.77 | 2.87 | 100 | 1010.8 |
| 20260502021528 | 17 | 349 | 29.0 | 41.8 | 0.00 | 2.77 | 2.87 | 100 | 1010.6 |
| 20260502021028 | 17 | 9 | 29.0 | 41.8 | 0.00 | 2.77 | 2.87 | 100 | 1010.4 |
| 20260502020528 | 17 | 355 | 27.4 | 43.5 | 0.00 | 2.77 | 2.87 | 100 | 1010.3 |
| 20260502020028 | 17 | 5 | 27.4 | 43.5 | 0.00 | 2.77 | 2.87 | 100 | 1010.3 |
| 20260502015528 | 17 | 355 | 29.0 | 40.2 | 0.00 | 2.77 | 2.87 | 100 | 1010.1 |
| 20260502015029 | 17 | 5 | 29.0 | 40.2 | 0.00 | 2.77 | 2.87 | 100 | 1009.9 |
| 20260502014528 | 18 | 5 | 25.7 | 38.6 | 0.00 | 2.77 | 2.87 | 100 | 1009.7 |
| 20260502014028 | 18 | 355 | 27.4 | 41.8 | 0.00 | 2.77 | 2.87 | 100 | 1009.7 |
| 20260502013528 | 18 | 5 | 27.4 | 41.8 | 0.00 | 2.77 | 2.87 | 100 | 1009.8 |
| 20260502013026 | 18 | 0 | 27.4 | 43.5 | 0.00 | 2.77 | 2.87 | 100 | 1009.5 |
| 20260502012526 | 18 | 16 | 27.4 | 43.5 | 0.00 | 2.77 | 2.87 | 100 | 1009.4 |
| 20260502012026 | 18 | 9 | 29.0 | 40.2 | 0.00 | 2.77 | 2.87 | 100 | 1009.4 |
| 20260502011526 | 18 | 12 | 29.0 | 40.2 | 0.00 | 2.77 | 2.87 | 100 | 1009.4 |
| 20260502011027 | 18 | 16 | 24.1 | 40.2 | 0.00 | 2.77 | 2.87 | 100 | 1009.5 |
| 20260502010526 | 18 | 16 | 22.5 | 38.6 | 0.00 | 2.77 | 2.87 | 100 | 1009.7 |
| 20260502010026 | 18 | 333 | 24.1 | 41.8 | 0.00 | 2.77 | 2.87 | 100 | 1009.7 |
| 20260502005526 | 18 | 26 | 20.9 | 41.8 | 0.00 | 2.77 | 2.87 | 100 | 1009.5 |
| 20260502005027 | 18 | 32 | 20.9 | 35.4 | 0.00 | 2.77 | 2.87 | 100 | 1009.6 |
| 20260502004525 | 18 | 343 | 24.1 | 37.0 | 0.00 | 2.77 | 2.87 | 100 | 1009.3 |
| 20260502003524 | 18 | 340 | 24.1 | 41.8 | 0.00 | 2.77 | 2.87 | 100 | 1008.9 |
| 20260502003024 | 18 | 350 | 25.7 | 41.8 | 0.00 | 2.77 | 2.87 | 100 | 1008.8 |
| 20260502002525 | 18 | 343 | 24.1 | 46.7 | 0.05 | 2.77 | 2.87 | 100 | 1008.7 |
| 20260502002024 | 18 | 0 | 22.5 | 46.7 | 0.10 | 2.77 | 2.87 | 100 | 1008.6 |
| 20260502001524 | 18 | 349 | 24.1 | 38.6 | 0.23 | 2.77 | 2.87 | 100 | 1008.4 |
| 20260502000022 | 18 | 307 | 24.1 | 40.2 | 0.76 | 2.77 | 2.87 | 100 | 1008.6 |
| 20260501235521 | 18 | 326 | 22.5 | 35.4 | 0.76 | 2.77 | 2.87 | 100 | 1008.8 |
| 20260501235020 | 18 | 338 | 22.5 | 38.6 | 0.76 | 2.77 | 2.87 | 100 | 1008.6 |
| 20260501234521 | 18 | 333 | 24.1 | 38.6 | 0.76 | 2.77 | 2.87 | 100 | 1008.3 |
| 20260501234018 | 18 | 329 | 24.1 | 38.6 | 0.76 | 2.77 | 2.87 | 100 | 1008.4 |
| 20260501233518 | 18 | 319 | 25.7 | 48.3 | 0.76 | 2.77 | 2.87 | 100 | 1008.4 |
| 20260501233018 | 18 | 295 | 25.7 | 48.3 | 0.76 | 2.77 | 2.87 | 100 | 1008.2 |
| 20260501232517 | 19 | 314 | 25.7 | 48.3 | 0.71 | 2.72 | 2.82 | 100 | 1007.3 |
| 20260501232017 | 19 | 310 | 30.6 | 48.3 | 0.69 | 2.67 | 2.79 | 100 | 1008.2 |
| 20260501231516 | 19 | 5 | 33.8 | 51.5 | 0.58 | 2.54 | 2.64 | 100 | 1006.1 |
| 20260501231016 | 20 | 320 | 32.2 | 51.5 | 0.05 | 2.01 | 2.11 | 100 | 1008.3 |
| 20260501230016 | 20 | 24 | 24.1 | 40.2 | 0.05 | 2.01 | 2.11 | 100 | 1005.2 |
| 20260501225017 | 20 | 18 | 30.6 | 41.8 | 0.05 | 2.01 | 2.11 | 100 | 1004.6 |
| 20260501224515 | 20 | 9 | 29.0 | 41.8 | 0.05 | 2.01 | 2.11 | 100 | 1004.9 |
| 20260501223512 | 20 | 9 | 32.2 | 46.7 | 0.05 | 2.01 | 2.11 | 100 | 1005.4 |
| 20260501223012 | 20 | 14 | 32.2 | 48.3 | 0.05 | 2.01 | 2.11 | 100 | 1005.3 |
| 20260501222012 | 20 | 14 | 29.0 | 40.2 | 0.03 | 1.98 | 2.08 | 100 | 1005.8 |
| 20260501221013 | 20 | 49 | 25.7 | 41.8 | 0.00 | 1.96 | 2.06 | 100 | 1005.8 |
| 20260501215512 | 20 | 32 | 30.6 | 48.3 | 0.00 | 1.96 | 2.06 | 100 | 1005.4 |
| 20260501215013 | 20 | 11 | 27.4 | 43.5 | 0.00 | 1.96 | 2.06 | 100 | 1005.9 |
| 20260501214513 | 20 | 17 | 27.4 | 41.8 | 0.03 | 1.96 | 2.06 | 100 | 1006.0 |
| 20260501214012 | 20 | 19 | 29.0 | 41.8 | 0.05 | 1.96 | 2.06 | 100 | 1005.8 |
| 20260501213012 | 20 | 12 | 27.4 | 41.8 | 0.86 | 1.96 | 2.06 | 100 | 1006.2 |
| 20260501212513 | 20 | 15 | 29.0 | 46.7 | 0.94 | 1.96 | 2.06 | 100 | 1006.4 |
| 20260501212013 | 20 | 12 | 30.6 | 46.7 | 0.97 | 1.96 | 2.06 | 100 | 1006.3 |
| 20260501211512 | 20 | 27 | 27.4 | 45.1 | 0.99 | 1.96 | 2.06 | 100 | 1006.3 |
| 20260501211012 | 20 | 18 | 22.5 | 37.0 | 0.99 | 1.96 | 2.06 | 100 | 1006.4 |
| 20260501210512 | 20 | 5 | 17.7 | 33.8 | 1.02 | 1.96 | 2.06 | 100 | 1006.4 |
| 20260501210013 | 20 | 349 | 14.5 | 29.0 | 1.17 | 1.96 | 2.06 | 100 | 1006.5 |
| 20260501205512 | 20 | 349 | 14.5 | 22.5 | 1.96 | 1.96 | 2.06 | 100 | 1006.7 |
| 20260501205012 | 20 | 348 | 14.5 | 25.7 | 1.96 | 1.96 | 2.06 | 100 | 1006.6 |
| 20260501204512 | 20 | 324 | 14.5 | 25.7 | 1.93 | 1.93 | 2.03 | 100 | 1006.4 |
| 20260501204012 | 20 | 340 | 12.9 | 22.5 | 1.91 | 1.91 | 2.01 | 100 | 1006.6 |
| 20260501203012 | 20 | 273 | 16.1 | 25.7 | 1.09 | 1.09 | 1.30 | 100 | 1007.5 |
| 20260501202012 | 20 | 15 | 16.1 | 22.5 | 0.99 | 0.99 | 1.12 | 100 | 1005.3 |
| 20260501201513 | 20 | 5 | 14.5 | 22.5 | 0.97 | 0.97 | 1.09 | 100 | 1005.4 |
| 20260501201013 | 20 | 335 | 19.3 | 40.2 | 0.97 | 0.97 | 1.07 | 100 | 1005.4 |
| 20260501200513 | 20 | 325 | 40.2 | 72.4 | 0.94 | 0.94 | 1.04 | 100 | 1007.0 |
| 20260501195512 | 20 | 55 | 27.4 | 56.3 | 0.00 | 0.00 | 0.10 | 100 | 1003.9 |
| 20260501193714 | 21 | 349 | 19.3 | 35.4 | 0.00 | 0.00 | 0.00 | 100 | 1005.1 |
| 20260501192712 | 21 | 77 | 24.1 | 38.6 | 0.00 | 0.00 | 0.00 | 100 | 1004.2 |
| 20260501192212 | 21 | 57 | 27.4 | 38.6 | 0.00 | 0.00 | 0.00 | 100 | 1004.7 |
| 20260501191713 | 21 | 60 | 27.4 | 41.8 | 0.00 | 0.00 | 0.00 | 100 | 1004.5 |
| 20260501190252 | 22 | 57 | 30.6 | 45.1 | 0.00 | 0.00 | 0.00 | 100 | 1004.5 |
| 20260501185754 | 22 | 25 | 33.8 | 53.1 | 0.00 | 0.00 | 0.00 | 100 | 1004.8 |
| 20260501185253 | 22 | 44 | 33.8 | 53.1 | 0.00 | 0.00 | 0.00 | 100 | 1005.2 |
| 20260501184752 | 22 | 26 | 35.4 | 48.3 | 0.00 | 0.00 | 0.00 | 100 | 1005.2 |
| 20260501184253 | 22 | 37 | 33.8 | 48.3 | 0.00 | 0.00 | 0.00 | 100 | 1005.3 |
| 20260501183753 | 22 | 40 | 30.6 | 46.7 | 0.00 | 0.00 | 0.00 | 100 | 1005.4 |
| 20260501183252 | 22 | 25 | 30.6 | 41.8 | 0.00 | 0.00 | 0.00 | 100 | 1005.5 |
| 20260501182752 | 21 | 34 | 29.0 | 41.8 | 0.00 | 0.00 | 0.00 | 100 | 1005.8 |
| 20260501181753 | 21 | 24 | 25.7 | 40.2 | 0.00 | 0.00 | 0.00 | 100 | 1006.4 |
| 20260501180752 | 21 | 5 | 29.0 | 38.6 | 0.00 | 0.00 | 0.00 | 100 | 1006.6 |
| 20260501180253 | 22 | 22 | 27.4 | 40.2 | 0.00 | 0.00 | 0.00 | 100 | 1006.4 |
| 20260501175253 | 21 | 22 | 24.1 | 35.4 | 0.00 | 0.00 | 0.00 | 100 | 1006.3 |
| 20260501174753 | 21 | 0 | 24.1 | 35.4 | 0.00 | 0.00 | 0.00 | 100 | 1006.3 |
| 20260501173753 | 21 | 11 | 24.1 | 33.8 | 0.00 | 0.00 | 0.00 | 100 | 1006.3 |
| 20260501172753 | 21 | 19 | 20.9 | 30.6 | 0.00 | 0.00 | 0.00 | 100 | 1006.4 |
| 20260501172253 | 21 | 9 | 22.5 | 33.8 | 0.00 | 0.00 | 0.00 | 100 | 1006.6 |
| 20260501171752 | 21 | 11 | 24.1 | 33.8 | 0.00 | 0.00 | 0.00 | 100 | 1006.9 |
| 20260501171252 | 22 | 5 | 22.5 | 33.8 | 0.00 | 0.00 | 0.00 | 100 | 1007.2 |
| 20260501165752 | 22 | 27 | 22.5 | 37.0 | 0.00 | 0.00 | 0.00 | 100 | 1007.3 |
| 20260501164753 | 22 | 36 | 24.1 | 35.4 | 0.00 | 0.00 | 0.00 | 100 | 1007.2 |
| 20260501164253 | 22 | 12 | 25.7 | 35.4 | 0.00 | 0.00 | 0.00 | 100 | 1007.4 |
| 20260501163753 | 22 | 26 | 24.1 | 33.8 | 0.00 | 0.00 | 0.00 | 100 | 1007.7 |
| 20260501163252 | 22 | 18 | 24.1 | 35.4 | 0.00 | 0.00 | 0.00 | 100 | 1007.8 |
| 20260501162753 | 23 | 0 | 24.1 | 35.4 | 0.00 | 0.00 | 0.00 | 100 | 1007.9 |
| 20260501162253 | 23 | 351 | 24.1 | 35.4 | 0.00 | 0.00 | 0.00 | 100 | 1008.1 |
| 20260501161751 | 23 | 346 | 22.5 | 33.8 | 0.00 | 0.00 | 0.00 | 100 | 1008.1 |
| 20260501161251 | 23 | 5 | 20.9 | 30.6 | 0.00 | 0.00 | 0.00 | 100 | 1007.9 |
| 20260501160751 | 23 | 5 | 19.3 | 32.2 | 0.00 | 0.00 | 0.00 | 100 | 1007.9 |
| 20260501160251 | 23 | 32 | 20.9 | 32.2 | 0.00 | 0.00 | 0.00 | 100 | 1007.8 |
| 20260501155751 | 23 | 13 | 22.5 | 32.2 | 0.00 | 0.00 | 0.00 | 100 | 1007.8 |
| 20260501155250 | 23 | 28 | 22.5 | 32.2 | 0.00 | 0.00 | 0.00 | 100 | 1007.8 |
| 20260501154251 | 23 | 36 | 22.5 | 37.0 | 0.00 | 0.00 | 0.00 | 100 | 1007.6 |
| 20260501153751 | 23 | 29 | 24.1 | 37.0 | 0.00 | 0.00 | 0.00 | 100 | 1007.5 |
| 20260501153252 | 23 | 39 | 25.7 | 37.0 | 0.00 | 0.00 | 0.00 | 100 | 1007.6 |
| 20260501152748 | 23 | 27 | 25.7 | 37.0 | 0.00 | 0.00 | 0.00 | 100 | 1007.5 |
| 20260501152249 | 23 | 28 | 24.1 | 35.4 | 0.00 | 0.00 | 0.00 | 100 | 1007.6 |
| 20260501151749 | 23 | 5 | 25.7 | 35.4 | 0.00 | 0.00 | 0.00 | 100 | 1007.5 |
| 20260501151249 | 23 | 37 | 25.7 | 38.6 | 0.00 | 0.00 | 0.00 | 100 | 1007.5 |
| 20260501150249 | 23 | 17 | 22.5 | 35.4 | 0.00 | 0.00 | 0.00 | 100 | 1007.6 |
| 20260501145749 | 23 | 42 | 22.5 | 35.4 | 0.00 | 0.00 | 0.00 | 100 | 1007.6 |
| 20260501145249 | 23 | 49 | 24.1 | 35.4 | 0.00 | 0.00 | 0.00 | 100 | 1007.5 |
| 20260501143748 | 23 | 10 | 22.5 | 35.4 | 0.00 | 0.00 | 0.00 | 100 | 1007.5 |
| 20260501143248 | 23 | 39 | 20.9 | 35.4 | 0.00 | 0.00 | 0.00 | 100 | 1007.6 |
| 20260501142747 | 23 | 24 | 22.5 | 32.2 | 0.00 | 0.00 | 0.00 | 100 | 1007.7 |
| 20260501141747 | 23 | 9 | 22.5 | 35.4 | 0.00 | 0.00 | 0.00 | 100 | 1007.8 |
| 20260501141247 | 23 | 28 | 20.9 | 32.2 | 0.00 | 0.00 | 0.00 | 100 | 1007.8 |
| 20260501140747 | 23 | 42 | 19.3 | 29.0 | 0.00 | 0.00 | 0.00 | 100 | 1008.0 |
| 20260501135746 | 22 | 16 | 25.7 | 37.0 | 0.00 | 0.00 | 0.00 | 100 | 1008.5 |
| 20260501135247 | 22 | 27 | 25.7 | 38.6 | 0.00 | 0.00 | 0.00 | 100 | 1008.6 |
| 20260501134745 | 22 | 16 | 24.1 | 38.6 | 0.00 | 0.00 | 0.00 | 100 | 1008.6 |
| 20260501134244 | 22 | 0 | 22.5 | 33.8 | 0.00 | 0.00 | 0.00 | 100 | 1008.6 |
| 20260501133745 | 22 | 5 | 22.5 | 33.8 | 0.00 | 0.00 | 0.00 | 100 | 1008.6 |
| 20260501133245 | 22 | 18 | 20.9 | 32.2 | 0.00 | 0.00 | 0.00 | 100 | 1008.7 |